Regional Weather Roundup
Issued by NWS Grand Forks, ND

Home | Current Version | Previous Version | Graphics & Text | Print | Product List | Glossary On
Versions: 1 2 3 4 5 6 7 8 9 10 11 12 13 14 15 16 17 18 19 20 21 22 23 24 25 26 27 28 29 30 31 32 33 34 35 36 37 38 39 40 41 42 43 44 45 46 47 48 49 50
000
ASUS43 KFGF 240931
RWRFGF
PRAIRIE TO PINES  WEATHER ROUNDUP
NATIONAL WEATHER SERVICE EASTERN NORTH DAKOTA/GRAND FORKS ND
400 AM CDT THU JUL 24 2014

 **SATELLITE DATA USED TO AUGMENT SKY COVER AT AUTOMATED STATIONS**
 *****  WEATHER ACROSS EASTERN NORTH DAKOTA  *****

CITY           SKY/WX    TMP DP  RH WIND       PRES   REMARKS
GRAND FORKS    PTCLDY    60  57  89 E3        30.12F
GRAND FRKS AFB PTCLDY    59  59  99 SE2       30.13F
GRAND FRKS NWS   N/A     59 N/A N/A SE3         N/A
DEVILS LAKE    PTCLDY    64  55  72 SE15      30.08F
FARGO          PTCLDY    62  58  86 E6        30.12F
WAHPETON ARPT  MOSUNNY   61  55  82 SE5       30.14S
$$

 ***** WEATHER ACROSS CENTRAL AND WESTERN NORTH DAKOTA  *****

CITY           SKY/WX    TMP DP  RH WIND       PRES   REMARKS
BISMARCK       CLEAR     65  57  75 SE12      30.02F
MINOT          MOCLDY    64  60  87 E12       29.99F
JAMESTOWN      CLEAR     63  58  83 SE8       30.09F
MINOT AFB      MOCLDY    63  63 100 E13       30.00F
GARRISON         N/A     65  59  81 SE13      29.98F
WILLISTON      CLOUDY    71  56  58 SE7G18    29.87F
DICKINSON      CLEAR     63  55  75 SE16      29.91F
HETTINGER      PTCLDY    66  55  67 SE16G25   29.94F
$$

 *****  OTHER AIRPORT OBSERVATIONS IN OUR AREA  *****

CITY           SKY/WX    TMP DP  RH WIND       PRES   REMARKS
WALHALLA         N/A     55  55 100 CALM        N/A
GRAFTON AIRPOR FAIR      54  54 100 CALM      30.12F
VALLEY CITY AR FAIR      61  61 100 SE7       30.12F
CANDO          FAIR      59  57  94 SE9       30.09F
CAVALIER APRT  FAIR      54  54 100 CALM      30.12F
GWINNER        SUNNY     61  61 100 SE6       30.13F
ROLLA          PTSUNNY   57  57 100 SE9       30.10F
 ***** THE ABOVE OBSERVATIONS ARE NON NWS ARE NOT QUALITY
       CONTROLLED AND MAY MIS-REPORT RAIN FOR SNOW...
$$

  *****  WEATHER ACROSS NORTHERN MINNESOTA  *****

CITY           SKY/WX    TMP DP  RH WIND       PRES   REMARKS
FLAG ISLAND    PTCLDY    64  57  77 CALM      30.14F HAZE
WARROAD        PTCLDY    50  46  87 CALM      30.16S
ROSEAU         PTCLDY    52  46  82 CALM      30.15F
HALLOCK        CLEAR     55  52  88 SE5       30.12F
THF RVR FALLS  PTCLDY    57  54  88 E5        30.14F
BAUDETTE       PTCLDY    56  52  86 CALM      30.17F
WASKISH        PTCLDY    52  52 100 CALM      30.16S
CROOKSTON      PTCLDY    57  55  94 SE5       30.14F
$$
  *****  WEATHER ACROSS CENTRAL AND WEST MINNESOTA  *****

CITY           SKY/WX    TMP DP  RH WIND       PRES   REMARKS
FOSSTON        PTCLDY    52  48  87 CALM      30.16F
BEMIDJI        CLEAR     49  48  93 CALM      30.17S
PARK RAPIDS    PTCLDY    54  52  93 CALM      30.17F
ELBOW LAKE     FAIR      63  57  81 SE7       30.15F
WADENA         PTCLDY    52  50  93 CALM      30.17S FOG
DETROIT LAKES  PTCLDY    61  55  82 SE5       30.17F
MOORHEAD       PTCLDY    63  61  94 SE5       30.13F
FERGUS FALLS   CLEAR     64  54  68 E7        30.14F
MORRIS MN      CLEAR     57  55  94 E7        30.14F
STAPLES        CLEAR     54  52  94 CALM      30.17S
$$
  *****  WEATHER ELSEWHERE ACROSS MINNESOTA  *****

CITY           SKY/WX    TMP DP  RH WIND       PRES   REMARKS
DULUTH         MOCLDY    57  50  77 SE3       30.19R
INTRNTL FALLS  CLEAR     46  45  96 CALM      30.18R
ELY            NOT AVBL
CLOQUET        CLOUDY    55  52  88 CALM      30.19R
WHEATON        CLEAR     57  55  94 SE5       30.16S
BRAINERD       CLEAR     50  50 100 CALM      30.18S
HIBBING        MOCLDY    46  43  89 CALM      30.20R
ALEXANDRIA     PTCLDY    59  55  87 CALM      30.18F
SAINT CLOUD    CLEAR     54  51  90 CALM      30.17S
MINNEAPOLIS    CLEAR     65  56  72 E3        30.16S
$$

  *****  WEATHER ACROSS SOUTH DAKOTA  *****

CITY           SKY/WX    TMP DP  RH WIND       PRES   REMARKS
SIOUX FALLS    CLEAR     64  55  72 E9        30.14F
BROOKINGS      NOT AVBL
WATERTOWN      PTCLDY    62  53  72 SE5       30.15F
HURON          MOCLDY    64  54  69 SE8       30.09F
SISSETON         N/A     57  57 100 CALM      30.13F
ABERDEEN       CLEAR     60  57  89 SE7       30.10F
MITCHELL       PTCLDY    65  59  81 SE8       30.10F
PIERRE         MOCLDY    70  59  68 SE17      30.01F
MOBRIDGE       MOCLDY    67  58  72 SE18G25   30.01F
RAPID CITY     CLOUDY    66  63  90 S6        29.95F
$$

  *****  SOME WEATHER IN NEARBY STATES *****

CITY           SKY/WX    TMP DP  RH WIND       PRES   REMARKS
GLASGOW MT     MOCLDY    71  63  75 NE15      29.76F
GREAT FALLS MT CLEAR     60  52  74 SW12      29.85S
CHEYENNE WY    CLEAR     63  48  58 S8        30.19F
SCOTTSBLUFF NE MOCLDY    68  64  87 SE9       30.04F
OMAHA NE       CLEAR     69  59  70 SE6       30.14F
DES MOINES IA  CLEAR     65  60  84 CALM      30.15F
DAVENPORT IA   CLEAR     57  53  86 CALM      30.17R
CHICAGO IL     CLEAR     58  50  75 N7        30.13S
EAU CLAIRE WI  CLOUDY    55  54  96 CALM      30.17S
LA CROSSE WI   PTCLDY    61  58  90 CALM      30.16S
$$

  *****  SOME NATIONAL WEATHER *****

CITY           SKY/WX    TMP DP  RH WIND       PRES   REMARKS
LA GUARDIA NY  CLOUDY    74  66  76 NW10      29.81R
RALEIGH NC     PTCLDY    75  71  87 SW6       29.89F
ATLANTA GA     PTCLDY    72  69  90 W3        29.97F
NEW ORLEANS LA PTCLDY    75  72  90 SE5       29.95F
OKLAHOMA CITY  MOCLDY    74  65  73 CALM      30.06S
ALBUQUERQUE NM PTCLDY    76  48  37 CALM      30.31S
SALT LAKE CITY MOCLDY    86  43  22 S15       29.95S
LOS ANGELES CA CLEAR     68  62  81 CALM      29.88F
BOISE ID       CLEAR     65  48  54 NW13      30.03R
SEATTLE WA     MOCLDY    57  52  83 S10       30.07S
$$

*** WEATHER ACROSS MANITOBA...SASKATCHEWAN AND ONTARIO ***
                ***ONTARIO***

CITY           SKY/WX    TMP DP  RH WIND       PRES   REMARKS
GERALDTON      MOCLDY    55  50  82 W5        30.06S
THUNDER BAY    CLEAR     48  46  93 SW5       30.15S
SIOUX LOOKOUT  CLEAR     46  45  93 NW2       30.15S
TORONTO        MOCLDY    57  48  72 N14       30.05R
BIG TROUT LK   CLEAR     46  46 100 N2        30.01S FOG
PICKLE LAKE    NOT AVBL
DRYDEN         CLEAR     54  52  94 W5        30.16S
KENORA         CLEAR     59  46  63 W3        30.18S
$$
                *** MANITOBA***

CITY           SKY/WX    TMP DP  RH WIND       PRES   REMARKS
BRANDON        CLOUDY    61  54  77 E10       30.08F
DAUPHIN        CLEAR     55  52  88 CALM      30.07F
ISLAND LAKE    PTCLDY    63  52  67 W6        30.06F
PILOT MOUND      N/A     55  52  88 SE8         N/A
THE PAS        PTCLDY    61  54  77 S2        30.04F
THOMPSON       PTCLDY    52  50  93 W2        30.02S
WINNIPEG       PTCLDY    57  50  77 SE3       30.14F
LYNN LAKE      CLEAR     55  50  82 SW7       30.02F
CHURCHILL      MOCLDY    55  52  88 SW3       29.96F
GILLAM         PTCLDY    50  50 100 CALM      29.97F
$$
                ***SASKATCHEWAN***

CITY           SKY/WX    TMP DP  RH WIND       PRES   REMARKS
ESTEVAN        MOCLDY    63  61  94 E12       29.95
KINDERSLEY     MOCLDY    66  64  94 S8        29.85R
LLOYDMINSTER   MOCLDY    63  61  94 SE12      29.80F
PRINCE ALBERT  MOCLDY    61  57  88 SE7       29.92F
REGINA         MOCLDY    63  61  94 SE15      29.90F
YORKTON        MOCLDY    63  55  77 SE12      30.00F
N. BATTLEFORD  CLOUDY    64  63  94 E12G21    29.85F
LA RONGE       MOCLDY    63  55  77 E7        29.97
SASKATOON      TSTM      66  63  88 E18       29.89S
SWIFT CURRENT  CLOUDY    64  57  77 SW23G31   29.85R
$$
NOTE: THESE ARE AUTOMATED STATIONS WITH LIMITED QUALITY CONTROL
      "FAIR" INDICATES FEW OR NO CLOUDS BELOW 12,000 FEET WITH NO
      SIGNIFICANT WEATHER AND/OR OBSTRUCTIONS TO VISIBILITY.
      SKY/WX - SKY CONDITION AND SIGNIFICANT WEATHER.
      TMP - AIR TEMPERATURE.    DP   - DEWPOINT TEMPERATURE.
      RH  - RELATIVE HUMIDITY.  PRES - PRESSURE.
      HX  - HEAT INDEX.         WCI  - WIND CHILL INDEX.
$


USA.gov is the U.S. government's official web portal to all federal, state and local government web resources and services.